Temperature
8 7 7 7 7 7 7 7 6 6 6 7 7 7 7 7 7 7 7 7 7 7 7 7 7 7 7 6 6 6 5 5 5 5 5 4 4 4 4 4 4 3 3
7 7 6 6 6 6 6 5 5 6 6 6 6 6 6 6 6 6 7 7 6 7 7 6 6 6 6 5 5 5 5 5 4 4 4 3 3 3 3 3 2 2 2
6 6 5 5 5 5 5 5 5 5 5 5 5 5 5 5 6 6 6 6 6 5 5 5 5 5 5 4 4 4 4 3 3 3 3 3 3 2 2 2 2 1 1
5 4 4 4 4 4 4 4 4 4 4 4 5 5 5 5 5 5 5 4 4 4 4 4 4 3 3 3 3 3 2 2 2 2 2 2 2 1 1 1 1 1 1
4 3 3 3 3 3 3 3 3 3 3 3 4 4 4 4 4 4 3 3 3 3 3 3 2 2 2 2 2 2 1 1 1 1 1 1 1 1 0 0 0 -0 -0
3 2 2 2 2 2 2 2 2 2 2 2 3 3 3 3 3 3 2 2 2 2 2 1 1 1 1 1 1 1 0 0 0 0 0 -0 -0 -1 -1 -1 -1 -1 -1
2 1 1 1 1 1 1 1 1 2 2 2 2 2 2 2 2 2 2 2 1 1 1 1 0 0 0 -0 -0 -0 -0 -1 -1 -1 -1 -1 -2 -2 -2 -2 -3 -3 -3
1 1 1 1 1 1 1 1 1 1 1 1 1 1 2 2 2 1 1 1 1 1 0 0 -0 -1 -1 -1 -1 -1 -2 -2 -2 -2 -2 -3 -3 -3 -4 -4 -4 -4 -4
1 1 1 1 1 1 1 1 1 1 1 1 1 1 1 1 1 1 1 0 0 -0 -0 -1 -1 -2 -2 -2 -2 -2 -3 -3 -3 -4 -4 -4 -4 -5 -5 -5 -5 -5 -5
2 1 1 1 1 1 1 1 1 1 1 1 1 1 1 1 0 0 -0 -0 -1 -1 -1 -2 -2 -3 -3 -4 -3 -3 -4 -4 -4 -5 -5 -5 -5 -6 -6 -6 -6 -6 -7
2 2 1 1 1 1 1 1 1 1 1 1 1 1 0 0 -0 -1 -1 -1 -1 -2 -2 -2 -3 -3 -4 -4 -4 -4 -5 -5 -5 -5 -5 -6 -6 -6 -6 -6 -7 -7 -7
2 2 2 1 1 1 1 1 1 1 1 1 0 0 0 -0 -1 -1 -1 -2 -2 -2 -3 -3 -3 -4 -4 -4 -5 -5 -6 -5 -6 -6 -6 -6 -6 -6 -7 -7 -7 -7 -7
3 2 2 1 1 1 1 1 1 1 1 1 0 0 -0 -0 -1 -1 -2 -2 -2 -3 -3 -3 -4 -4 -4 -5 -5 -5 -6 -6 -6 -6 -6 -6 -6 -7 -7 -7 -7 -7 -7
3 2 2 2 1 1 1 1 1 1 1 0 0 0 -0 -0 -1 -1 -2 -2 -2 -3 -3 -4 -4 -4 -5 -5 -5 -6 -6 -6 -6 -6 -6 -7 -7 -7 -7 -7 -7 -7 -6
3 2 2 2 1 1 1 1 1 0 0 0 0 -0 -0 -0 -1 -1 -2 -2 -2 -3 -3 -3 -4 -4 -5 -5 -5 -6 -6 -6 -7 -7 -7 -7 -7 -7 -7 -7 -7 -7 -7
3 2 2 2 1 1 1 1 1 0 0 0 -0 -0 -0 -1 -1 -1 -2 -2 -3 -3 -4 -4 -4 -4 -5 -5 -5 -6 -6 -6 -7 -7 -7 -7 -7 -7 -7 -7 -8 -8 -7
3 3 2 2 2 1 1 1 0 0 0 -0 -0 -1 -1 -1 -1 -2 -2 -2 -3 -3 -4 -4 -4 -4 -5 -5 -5 -6 -6 -6 -7 -7 -7 -7 -8 -8 -8 -8 -8 -8 -8
3 2 2 2 1 1 1 1 0 0 -0 -0 -1 -1 -1 -1 -2 -2 -2 -2 -3 -3 -4 -4 -4 -4 -5 -5 -5 -6 -6 -6 -6 -7 -7 -7 -8 -8 -8 -8 -8 -8 -8
3 2 2 2 1 1 1 0 0 -0 -0 -0 -1 -1 -1 -2 -2 -2 -2 -3 -3 -3 -4 -4 -4 -5 -5 -5 -5 -6 -6 -6 -6 -7 -7 -7 -8 -8 -8 -8 -8 -8 -9
2 2 2 1 1 1 0 0 -0 -0 -0 -1 -1 -1 -2 -2 -2 -2 -3 -3 -3 -3 -4 -4 -4 -5 -5 -5 -5 -6 -6 -6 -6 -7 -7 -7 -8 -8 -8 -8 -8 -9 -9
2 2 1 1 1 0 0 -0 -0 -1 -1 -1 -1 -2 -2 -2 -2 -3 -3 -3 -3 -4 -4 -4 -4 -5 -5 -5 -6 -6 -6 -6 -7 -7 -7 -8 -8 -8 -8 -9 -9 -9 -9
1 1 1 1 1 0 -0 -0 -1 -1 -2 -2 -2 -2 -3 -3 -3 -3 -3 -3 -4 -4 -4 -4 -4 -5 -5 -5 -6 -6 -6 -6 -7 -7 -8 -8 -8 -8 -9 -9 -9 -9 -9
1 1 0 0 0 -0 -1 -1 -1 -1 -2 -2 -2 -3 -3 -3 -3 -3 -3 -4 -4 -4 -5 -5 -5 -5 -5 -6 -6 -6 -6 -7 -7 -8 -8 -8 -8 -8 -9 -9 -9 -9 -9
0 -0 -0 -0 -0 -1 -1 -1 -1 -2 -2 -3 -3 -3 -4 -4 -4 -4 -4 -4 -4 -4 -5 -5 -5 -5 -5 -6 -6 -6 -7 -7 -7 -8 -8 -8 -8 -9 -9 -9 -9 -9 -9
-0 -1 -1 -1 -1 -1 -1 -2 -2 -2 -3 -3 -3 -3 -4 -4 -4 -4 -4 -4 -4 -5 -5 -5 -5 -5 -6 -6 -6 -6 -7 -7 -8 -8 -9 -9 -9 -9 -9 -9 -9 -9 -9
-1 -1 -2 -2 -2 -2 -2 -2 -3 -3 -3 -3 -4 -4 -4 -4 -4 -4 -4 -5 -5 -5 -5 -5 -6 -6 -6 -6 -6 -6 -7 -7 -8 -9 -9 -9 -9 -9 -9 -9 -9 -9 -9
Wind_Speed
4 4 4 4 4 5 5 5 5 5 6 6 6 6 7 8 8 7 7 8 8 8 7 7 7 6 5 5 4 3 3 1 3 1 2 2 3 3 3 2 1 3 5
4 4 4 4 5 5 5 5 5 6 6 6 6 7 8 8 8 8 8 8 9 9 8 8 8 6 7 6 5 5 4 4 2 2 2 3 3 3 3 3 4 4 3
4 4 4 4 5 5 5 5 6 6 6 7 7 8 8 8 8 8 8 9 9 9 9 9 8 8 7 6 6 6 4 4 3 1 2 2 2 2 3 3 4 4 5
4 5 4 4 4 5 5 6 6 6 6 7 7 7 7 8 8 8 8 9 9 9 9 8 8 7 6 6 6 6 5 4 4 3 2 2 2 2 2 2 2 3 3
5 5 4 4 4 5 5 6 6 6 7 6 7 7 7 7 7 7 7 8 8 8 8 8 9 10 11 8 6 5 5 4 4 4 3 3 3 3 3 2 2 2 2
5 5 4 4 5 5 5 6 6 7 7 7 8 7 8 8 11 12 9 7 7 7 7 7 7 9 11 13 13 12 9 6 4 3 3 3 3 3 3 3 2 2 2
5 5 5 5 5 5 6 6 6 6 6 7 7 7 7 8 12 12 12 7 7 6 6 5 5 6 8 6 9 11 12 13 10 4 3 3 2 2 2 2 2 1 1
6 5 5 5 6 6 6 6 6 5 5 5 6 6 5 7 10 11 11 7 6 5 5 5 4 5 4 5 5 6 6 6 7 5 3 1 1 1 0 0 0 1 2
6 6 5 6 6 6 6 5 4 4 4 4 4 5 5 5 7 8 8 4 4 4 4 4 4 4 7 7 5 4 5 5 7 8 7 6 6 5 1 2 1 1 2
7 6 5 6 6 6 5 4 3 3 3 3 3 3 3 3 4 5 6 3 3 3 3 4 6 6 7 6 3 2 3 3 3 4 6 6 6 6 5 1 3 2 2
7 6 6 6 6 6 5 3 4 3 3 2 1 1 2 3 4 3 3 2 1 1 2 3 4 8 8 7 4 1 3 1 1 2 3 3 3 3 3 3 1 4 4
7 7 6 6 5 5 5 4 3 4 3 2 1 2 2 2 3 3 3 1 2 1 1 2 4 8 8 7 5 5 5 3 2 2 2 2 3 3 3 4 4 5 7
7 7 6 6 5 5 5 5 4 4 3 3 3 3 3 2 3 4 3 3 3 1 2 5 6 7 6 5 5 6 4 2 2 2 3 3 3 3 3 4 4 5 8
8 7 7 7 6 5 5 5 5 5 5 4 4 4 3 3 3 3 2 3 4 3 3 4 5 6 4 4 4 4 2 2 2 2 3 3 3 3 3 2 3 4 4
9 8 7 7 6 6 6 6 6 6 6 5 5 4 4 4 4 5 4 3 3 4 3 1 1 2 3 3 3 3 3 3 3 2 3 4 4 4 4 3 3 3 4
9 9 8 7 6 6 5 5 8 9 10 11 9 7 6 6 6 6 6 6 7 7 2 1 2 3 3 4 4 4 3 4 3 3 4 4 5 5 5 4 4 5 7
11 10 8 8 7 7 6 6 5 6 8 9 10 10 9 8 8 7 7 7 7 6 2 3 3 4 4 4 4 4 4 4 4 4 5 5 5 5 5 6 6 6 8
11 11 10 8 8 8 8 7 6 5 4 4 6 10 11 10 9 9 8 6 4 3 3 4 5 5 5 5 5 5 5 5 5 5 5 6 6 5 6 7 7 7 8
11 9 9 8 8 8 7 7 6 6 6 5 4 5 8 9 9 9 7 4 4 4 5 5 5 5 5 5 5 6 6 6 6 6 6 7 6 6 7 8 8 12 11
10 12 11 8 8 8 7 7 7 7 7 6 6 5 3 4 4 4 4 4 5 5 5 6 6 6 6 6 6 6 6 6 7 7 7 7 7 7 9 10 9 9 10
7 9 13 9 8 8 8 8 8 7 7 7 6 6 8 6 6 6 5 6 6 6 6 6 6 6 6 6 6 6 7 7 7 7 7 7 7 7 8 9 10 10 11
6 6 8 8 8 8 7 7 7 7 7 7 6 6 10 6 5 6 6 6 6 6 6 6 6 6 6 6 6 7 7 8 8 8 8 8 8 9 9 10 10 11 11
5 6 6 7 7 9 9 7 7 7 7 7 6 5 5 6 6 6 7 6 6 5 6 6 6 6 8 10 11 8 8 9 9 8 9 9 9 10 10 11 13 13 13
5 6 6 6 7 7 7 7 7 7 7 6 6 6 6 6 7 7 7 6 5 5 7 8 8 9 11 11 12 13 15 16 15 13 12 12 12 11 11 12 14 15 16
4 5 5 6 6 7 7 7 7 7 7 6 6 6 6 6 6 6 6 6 6 6 7 9 9 11 13 15 15 16 18 20 20 18 15 12 14 15 15 16 15 16 17
4 4 5 5 5 6 6 6 6 6 6 6 6 6 6 6 6 6 6 6 6 6 7 8 11 13 15 16 18 19 20 21 22 23 19 13 14 15 15 15 18 18 19
Wind_Direction
91 80 71 55 52 54 53 44 37 35 36 40 40 42 40 36 34 44 46 45 52 48 43 48 42 34 35 26 21 19 10 333 279 345 40 353 342 341 351 354 271 239 242
104 92 80 68 64 63 57 49 48 50 46 47 48 52 50 46 44 50 55 54 56 55 48 48 40 39 40 32 32 29 19 9 348 322 11 5 4 5 19 35 43 50 52
111 100 88 78 74 70 64 59 57 59 57 54 56 57 55 53 54 56 63 64 61 57 53 51 43 44 44 37 37 32 20 19 19 41 23 21 10 16 32 39 44 37 42
122 114 102 93 89 84 77 71 67 67 65 60 60 63 65 63 61 61 65 66 65 59 53 50 46 47 49 44 40 28 24 28 28 40 36 30 25 16 34 33 36 33 30
132 126 118 112 104 98 89 81 74 70 67 63 64 63 65 69 68 67 65 68 67 62 53 46 46 48 52 55 53 37 34 36 33 35 32 27 25 19 21 16 29 25 29
141 137 133 127 118 109 101 92 83 75 69 65 62 61 61 68 75 78 78 67 65 62 52 39 38 41 45 46 50 48 47 46 38 37 31 35 20 13 12 21 26 28 359
148 143 143 137 123 114 109 100 92 83 75 68 59 59 60 69 77 79 79 74 66 59 51 41 38 36 48 40 43 44 41 45 51 67 55 33 13 356 13 19 25 27 305
150 149 148 142 130 122 113 104 97 88 81 75 63 55 54 63 77 81 82 74 66 54 45 40 34 14 37 56 51 39 29 28 40 52 72 12 328 300 115 136 134 356 300
158 156 154 147 139 132 123 116 105 100 90 81 68 55 47 37 68 87 90 76 63 41 24 23 26 6 19 43 58 38 19 3 17 24 22 12 3 353 350 108 70 29 320
164 157 150 145 143 138 135 126 114 116 115 100 73 50 35 7 40 87 103 96 69 34 12 5 8 7 7 21 80 39 355 331 349 357 1 360 2 5 22 105 167 169 230
152 149 148 147 145 142 138 132 131 130 124 110 73 355 343 337 355 28 100 126 120 55 8 347 335 347 351 354 11 324 315 11 31 351 339 341 353 4 15 16 165 173 189
151 154 155 154 156 151 150 151 153 156 163 192 242 284 286 302 323 330 350 29 138 147 308 299 307 333 344 348 349 333 357 42 21 345 337 334 333 325 319 321 304 255 233
160 164 164 164 165 162 170 175 179 185 196 215 223 241 260 263 291 310 327 338 340 241 264 301 322 338 351 349 336 345 17 22 338 322 312 296 276 271 285 302 301 286 272
174 177 175 177 180 181 187 190 193 197 205 217 223 233 245 260 264 265 275 297 303 308 304 308 324 336 342 336 340 351 348 303 295 282 283 281 283 281 284 287 294 310 305
183 187 188 191 190 195 204 207 207 210 202 205 214 215 216 241 249 243 236 230 236 251 257 212 312 320 322 320 313 306 305 310 312 292 286 292 294 291 289 288 278 289 280
191 196 197 196 197 199 204 225 237 228 232 232 220 210 222 234 252 260 268 277 285 288 278 208 266 276 279 284 290 293 290 284 278 273 275 276 281 284 286 281 267 267 273
198 197 196 197 198 200 202 208 226 237 239 240 236 234 236 242 250 259 265 275 281 287 252 239 253 260 263 265 265 263 265 267 264 264 264 265 265 269 271 273 269 267 268
202 201 198 199 199 200 203 205 205 209 224 242 243 243 245 247 250 254 259 269 274 265 230 242 249 252 253 255 257 258 263 268 263 259 259 259 257 259 265 266 263 261 269
203 202 200 198 198 201 201 201 205 211 219 225 228 247 245 248 252 252 252 224 232 246 244 244 244 246 248 250 252 253 256 261 262 260 259 258 255 253 261 263 263 270 272
208 205 196 196 197 199 200 202 207 213 219 223 228 228 213 212 225 238 231 222 232 242 244 245 246 245 246 248 251 253 257 259 260 258 259 258 254 251 259 263 264 266 266
202 203 199 199 202 202 203 206 208 209 216 223 229 224 215 212 225 229 230 231 234 241 242 243 246 247 247 247 248 251 255 260 258 257 260 259 255 257 259 261 263 264 267
196 197 197 202 204 205 207 205 204 210 217 224 229 232 238 227 221 229 234 238 236 236 234 238 244 244 243 242 245 248 255 260 259 256 257 258 257 259 261 262 263 265 266
192 195 200 204 203 210 211 206 207 212 217 221 222 221 224 226 230 233 238 239 238 238 241 240 246 253 253 250 245 240 249 256 257 255 259 263 262 262 261 261 262 264 265
197 201 206 207 206 208 210 209 210 214 217 220 222 226 226 228 233 237 237 238 239 241 247 246 248 252 256 260 258 252 251 256 260 258 254 258 262 264 264 263 264 264 265
205 208 212 212 211 213 214 212 211 214 218 221 224 229 230 230 233 237 238 239 243 248 251 252 254 257 261 262 262 263 265 269 270 267 260 257 259 259 262 264 266 268 268
215 217 218 216 216 216 216 216 215 216 220 224 227 229 231 233 237 239 240 241 246 250 255 258 257 260 265 269 271 273 277 279 280 280 278 273 270 269 268 270 270 270 272
Height
1502 1502 1502 1502 1501 1501 1501 1500 1500 1500 1499 1498 1497 1496 1495 1494 1494 1493 1493 1492 1492 1491 1491 1490 1490 1489 1488 1488 1487 1486 1485 1484 1483 1482 1481 1479 1478 1478 1477 1476 1477 1478 1480
1498 1498 1498 1498 1498 1498 1497 1497 1497 1496 1496 1495 1494 1494 1493 1492 1491 1491 1490 1489 1489 1488 1487 1487 1486 1486 1485 1484 1483 1482 1481 1480 1479 1478 1477 1475 1475 1474 1473 1473 1474 1475 1477
1494 1494 1494 1494 1494 1494 1494 1494 1494 1494 1493 1493 1492 1492 1491 1490 1489 1488 1488 1487 1486 1486 1485 1484 1484 1483 1482 1481 1481 1480 1479 1477 1476 1475 1474 1473 1472 1471 1471 1471 1472 1473 1474
1491 1491 1491 1491 1491 1491 1491 1491 1491 1491 1491 1490 1490 1489 1489 1488 1487 1487 1486 1485 1484 1484 1483 1483 1482 1481 1480 1479 1479 1477 1476 1475 1474 1473 1472 1471 1470 1470 1470 1470 1470 1471 1471
1487 1488 1488 1488 1488 1488 1488 1489 1489 1489 1489 1489 1488 1488 1487 1487 1486 1486 1485 1484 1484 1483 1482 1482 1481 1480 1479 1478 1477 1476 1475 1474 1473 1472 1471 1470 1469 1468 1468 1468 1468 1468 1468
1484 1484 1485 1485 1486 1486 1486 1487 1487 1487 1487 1487 1487 1487 1487 1486 1486 1485 1484 1484 1483 1482 1482 1481 1480 1479 1478 1477 1476 1474 1473 1472 1470 1470 1469 1468 1467 1467 1466 1466 1465 1465 1465
1481 1482 1482 1483 1483 1484 1485 1486 1486 1487 1487 1487 1487 1487 1486 1486 1485 1485 1484 1483 1482 1482 1481 1480 1479 1478 1476 1475 1474 1472 1471 1470 1469 1468 1467 1466 1465 1464 1464 1463 1462 1462 1461
1479 1480 1480 1481 1482 1483 1484 1485 1486 1486 1487 1487 1487 1487 1486 1486 1485 1484 1484 1483 1482 1480 1479 1478 1477 1476 1474 1473 1471 1470 1469 1467 1466 1465 1464 1463 1462 1462 1461 1461 1459 1459 1458
1477 1478 1479 1480 1481 1482 1483 1484 1485 1486 1486 1487 1487 1487 1486 1486 1485 1484 1483 1482 1480 1479 1478 1476 1475 1474 1472 1470 1469 1468 1466 1465 1464 1463 1462 1461 1460 1459 1458 1458 1457 1456 1455
1475 1476 1478 1479 1480 1482 1483 1484 1485 1485 1486 1486 1486 1486 1486 1485 1484 1483 1482 1480 1479 1477 1476 1474 1473 1471 1470 1468 1467 1465 1464 1463 1462 1460 1460 1458 1457 1456 1455 1455 1454 1453 1452
1474 1475 1477 1478 1480 1481 1482 1483 1484 1485 1485 1485 1485 1485 1484 1484 1483 1481 1480 1478 1477 1475 1474 1472 1471 1469 1468 1466 1465 1463 1462 1461 1459 1458 1457 1456 1455 1454 1453 1452 1451 1451 1450
1473 1474 1476 1477 1479 1480 1481 1482 1483 1484 1484 1484 1484 1484 1483 1482 1481 1480 1478 1476 1475 1473 1472 1470 1469 1467 1466 1464 1463 1462 1460 1459 1458 1456 1455 1454 1453 1452 1451 1450 1449 1448 1447
1472 1473 1475 1476 1478 1479 1480 1481 1482 1482 1482 1482 1482 1482 1481 1480 1479 1477 1476 1474 1472 1471 1469 1468 1466 1465 1463 1462 1461 1459 1458 1457 1455 1454 1453 1452 1450 1449 1448 1447 1446 1444 1443
1470 1472 1473 1475 1476 1477 1478 1479 1480 1480 1480 1480 1480 1479 1478 1477 1476 1475 1473 1472 1470 1468 1467 1465 1464 1462 1461 1459 1458 1457 1455 1454 1452 1451 1450 1448 1447 1446 1445 1443 1442 1440 1439
1468 1469 1471 1472 1474 1475 1476 1477 1477 1478 1478 1478 1477 1476 1475 1474 1473 1472 1470 1469 1467 1465 1464 1462 1461 1460 1458 1457 1455 1454 1452 1451 1449 1448 1446 1445 1443 1442 1440 1439 1437 1435 1433
1465 1466 1468 1469 1470 1472 1473 1474 1474 1475 1475 1474 1474 1473 1472 1472 1470 1469 1467 1466 1464 1462 1461 1459 1458 1456 1455 1453 1452 1450 1449 1447 1445 1444 1442 1440 1439 1437 1435 1434 1432 1430 1428
1460 1462 1464 1465 1467 1468 1469 1470 1470 1471 1471 1470 1470 1469 1469 1468 1466 1465 1464 1462 1461 1459 1458 1456 1455 1453 1451 1450 1448 1446 1445 1443 1441 1439 1438 1436 1434 1432 1430 1428 1426 1424 1422
1455 1457 1459 1460 1462 1463 1464 1465 1466 1466 1466 1466 1466 1465 1465 1464 1463 1461 1460 1459 1457 1456 1454 1453 1451 1449 1448 1446 1444 1442 1440 1438 1437 1435 1433 1431 1429 1426 1424 1422 1420 1418 1415
1449 1451 1453 1455 1456 1457 1459 1460 1460 1461 1461 1461 1461 1461 1460 1459 1458 1457 1456 1454 1453 1452 1450 1449 1447 1445 1443 1441 1439 1437 1435 1433 1431 1429 1427 1425 1423 1420 1418 1415 1413 1411 1408
1443 1445 1447 1448 1450 1451 1452 1453 1454 1455 1455 1456 1456 1456 1456 1455 1453 1453 1451 1450 1449 1447 1446 1444 1443 1441 1439 1437 1434 1432 1430 1428 1426 1424 1421 1419 1417 1414 1411 1409 1406 1403 1400
1437 1439 1440 1441 1442 1444 1445 1446 1447 1448 1448 1449 1450 1450 1450 1449 1448 1448 1447 1445 1444 1443 1441 1439 1438 1436 1434 1431 1429 1426 1424 1422 1420 1417 1415 1412 1410 1407 1404 1401 1399 1396 1393
1431 1432 1433 1434 1435 1437 1438 1439 1440 1441 1441 1442 1443 1444 1444 1443 1443 1442 1441 1440 1439 1437 1436 1434 1432 1430 1428 1426 1423 1420 1418 1415 1413 1410 1407 1405 1402 1399 1396 1393 1391 1388 1385
1425 1426 1427 1428 1429 1430 1431 1432 1433 1434 1435 1436 1436 1437 1437 1437 1437 1436 1436 1435 1433 1432 1430 1428 1426 1424 1422 1420 1417 1414 1411 1408 1406 1403 1400 1397 1394 1391 1388 1385 1382 1379 1376
1420 1420 1421 1422 1422 1423 1424 1425 1426 1427 1428 1429 1430 1430 1431 1431 1431 1430 1430 1429 1427 1426 1424 1422 1420 1418 1415 1413 1410 1407 1404 1401 1398 1395 1392 1389 1386 1383 1380 1376 1373 1370 1366
1415 1415 1415 1416 1416 1417 1418 1419 1420 1421 1421 1423 1423 1424 1424 1425 1425 1424 1424 1423 1421 1420 1418 1416 1413 1411 1409 1406 1403 1400 1397 1394 1391 1388 1384 1381 1377 1374 1371 1367 1364 1360 1357
1410 1410 1410 1410 1411 1411 1412 1413 1414 1415 1416 1417 1418 1418 1418 1419 1419 1418 1417 1416 1415 1413 1411 1409 1407 1404 1401 1399 1396 1393 1389 1386 1383 1380 1377 1373 1370 1366 1362 1358 1354 1351 1346